AO-07 1 07530U 74089B 17321.85566903 -.00000037 00000-0 44407-4 0 9993 2 07530 101.6542 287.6324 0012366 25.5117 28.5360 12.53629911968115 UO-11 1 14781U 84021B 17322.07965772 .00000159 00000-0 25831-4 0 9992 2 14781 97.6786 1.9648 0009767 60.9092 299.3099 14.82955982813151 LO-19 1 20442U 90005G 17322.39863671 .00000026 00000-0 25642-4 0 9995 2 20442 98.5887 257.4246 0012752 55.4813 304.7573 14.32878179453700 HUBBLE 1 20580U 90037B 17321.74499630 .00000714 00000-0 32972-4 0 9999 2 20580 028.4700 072.7362 0002859 028.3500 095.5942 15.08921073313419 MET-2/21 1 22782U 93055A 17321.96055921 .00000064 00000-0 44509-4 0 9990 2 22782 082.5494 261.5400 0022554 003.2694 063.0364 13.83804893222695 AO-27 1 22825U 93061C 17322.47535551 .00000013 00000-0 22997-4 0 9995 2 22825 98.8341 290.1136 0007466 237.9961 122.0495 14.30013716259450 IO-26 1 22826U 93061D 17322.54087253 .00000019 00000-0 24837-4 0 9996 2 22826 98.8282 290.2438 0008077 226.9068 133.1439 14.30343821259641 FO-29 1 24278U 96046B 17321.59907769 -.00000034 00000-0 42423-5 0 9992 2 24278 098.5369 184.2623 0349513 299.8772 056.8066 13.53080515049375 NOAA-15 1 25338U 98030A 17322.52998746 .00000048 00000-0 38942-4 0 9998 2 25338 98.7789 333.7290 0011491 116.5028 243.7332 14.25826352 15005 GO-32 1 25397U 98043D 17322.46588426 -.00000006 00000-0 16388-4 0 9995 2 25397 98.6261 261.6525 0000202 309.4647 50.6514 14.23633848 5743 ISS 1 25544U 98067A 17322.57575198 .00004143 00000-0 69679-4 0 9995 2 25544 51.6414 348.6727 0004362 127.9244 9.4068 15.54177811 85767 NO-44 1 26931U 01043C 17322.55615282 -.00000011 00000-0 27426-4 0 9996 2 26931 67.0527 52.8956 0005321 263.3427 96.7069 14.30483401842428 SO-50 1 27607U 02058C 17322.21112245 .00000093 00000-0 33964-4 0 9991 2 27607 64.5566 14.8704 0039309 25.5133 334.7898 14.75391339801830 CO-55 1 27844U 03031E 17321.95339450 .00000088 00000-0 59521-4 0 9996 2 27844 098.6893 328.7225 0008730 261.9416 098.0772 14.22075518746135 CO-57 1 27848U 03031J 17322.48770231 .00000070 00000-0 51880-4 0 9996 2 27848 98.6984 329.5710 0008616 271.3043 88.7147 14.21685260746123 RS-22 1 27939U 03042A 17322.50573187 .00000138 00000-0 33328-4 0 9995 2 27939 97.9612 102.4881 0014323 96.5829 337.4558 14.66629301755934 NOAA-18 1 28654U 05018A 17322.49258488 .00000039 00000-0 46486-4 0 9996 2 28654 99.1705 348.3919 0014261 2.8630 357.2620 14.12357364644047 CO-58 1 28895U 05043F 17321.94563185 .00000231 00000-0 53172-4 0 9997 2 28895 097.8819 117.3287 0017233 021.7954 338.3979 14.63472705642743 Falconsat-3 1 30776U 07006E 17321.88394768 .00003993 00000-0 12211-3 0 9997 2 30776 035.4349 170.8365 0004230 280.7383 079.2866 15.33417408591855 CO-65 1 32785U 08021C 17322.17463615 .00000405 00000-0 49660-4 0 9992 2 32785 97.5573 339.3461 0013666 24.5220 335.6645 14.88006461517798 AAUSAT2 1 32788U 08021F 17322.14724503 .00000718 00000-0 72189-4 0 9997 2 32788 97.5440 352.2218 0011307 342.5930 17.4901 14.94108569518665 DO-64 1 32789U 08021G 17322.12726097 .00001885 00000-0 13524-3 0 9999 2 32789 97.5412 17.0156 0011228 300.4808 59.5310 15.05480278520028 CO-66 1 32791U 08021J 17322.53702345 .00000631 00000-0 70197-4 0 9995 2 32791 97.5516 344.5169 0013483 6.5785 353.5608 14.90389796518133 RS-30 1 32953U 08025A 17322.49190272 .00000016 00000-0 43181-4 0 9994 2 32953 82.4997 143.7166 0018660 310.3889 49.5561 12.43080060430599 PRISM 1 33493U 09002B 17322.49092252 .00000348 00000-0 36740-4 0 9990 2 33493 98.1474 211.2711 0014560 297.7111 62.2659 14.95942698478844 NOAA-19 1 33591U 09005A 17322.50998017 .00000086 00000-0 71635-4 0 9999 2 33591 99.1142 291.6830 0013617 194.9365 165.1406 14.12229747452433 TISAT-1 1 36799U 10035E 17322.34947261 .00000719 00000-0 79421-4 0 9998 2 36799 98.0806 88.3930 0012572 174.8340 185.3009 14.90601982398749 JUGNU 1 37839U 11058B 17321.16292649 .00000332 00000-0 35159-4 0 9993 2 37839 19.9608 242.9091 0019068 70.1418 70.8502 14.12601300315354 SRMSAT 1 37841U 11058D 17321.30532446 .00000338 00000-0 40520-4 0 9998 2 37841 019.9725 286.8812 0011683 323.8695 189.5365 14.10591443314836 AO-71 1 37854U 11061E 17322.42153929 .00004696 00000-0 25277-3 0 9997 2 37854 101.7003 274.4928 0165771 338.2720 21.1515 15.04783700330128 HRBE 1 37855U 11061F 17321.80573445 .00004708 00000-0 24871-3 0 9991 2 37855 101.7124 271.2641 0178917 347.5583 012.1240 15.03736695329400 ALMASAT-1 1 38078U 12006B 17322.47462756 .00018104 36770-5 19300-3 0 9999 2 38078 69.4342 75.0389 0278012 61.8269 57.2166 15.29752571308316 HORYU-2 1 38340U 12025D 17322.10520400 .00000339 00000-0 57985-4 0 9998 2 38340 98.3767 331.4688 0012083 157.1831 202.9916 14.75446233295984 RS-40 1 38735U 12041C 17322.48119050 .00000019 00000-0 65861-4 0 9997 2 38735 82.4784 227.9737 0017846 53.1251 307.1462 12.42575096240865 BEESAT-3 1 39134U 13015E 17322.50103025 .00003204 00000-0 16242-3 0 9998 2 39134 64.8644 88.1142 0031841 241.1799 118.6130 15.18484802252907 BEESAT-2 1 39136U 13015G 17322.47851475 .00002112 00000-0 11952-3 0 9995 2 39136 64.8704 101.1031 0032927 260.4135 99.3269 15.15621702252652 ZACUBE-1 1 39417U 13066B 17321.89221091 .00000393 00000-0 55864-4 0 9993 2 39417 097.6123 356.5426 0060477 126.3321 234.3496 14.80820231215522 TRITON-1 1 39427U 13066M 17321.94562942 .00000301 00000-0 56222-4 0 9991 2 39427 097.6364 326.9911 0113367 215.6139 143.7465 14.67562635213406 GOMX-1 1 39430U 13066Q 17322.48885417 .00000306 00000-0 65011-4 0 9991 2 39430 97.6760 309.8504 0150355 275.8666 82.5413 14.58974326212427 LO-74 1 39440U 13066AA 17322.52431004 .00000333 00000-0 53318-4 0 9993 2 39440 97.6161 345.1456 0081242 158.6447 201.8186 14.75558983214853 AO-73 1 39444U 13066AE 17321.92991502 .00000477 00000-0 65377-4 0 9991 2 39444 097.6139 357.8311 0059696 122.4706 238.2298 14.81575936213780 SPROUT 1 39770U 14029E 17322.45996960 .00001020 00000-0 12130-3 0 9998 2 39770 97.8757 60.3748 0009189 172.5945 187.5437 14.86530187189050 DUCHIFAT-1 1 40021U 14033M 17321.81799730 .00000681 00000-0 76291-4 0 9990 2 40021 097.9149 235.1676 0013511 149.4524 210.7483 14.90098196185475 NANOSATCBR1 1 40024U 14033Q 17322.29397726 .00000629 00000-0 72107-4 0 9999 2 40024 97.9099 234.2793 0012843 149.2071 210.9902 14.89393757185482 EO-79 1 40025U 14033R 17321.75215186 .00000506 00000-0 60350-4 0 9990 2 40025 97.9071 232.5423 0012962 154.4104 205.7757 14.88567612185337 DTUSAT-2 1 40030U 14033W 17321.72931497 .00000475 00000-0 57569-4 0 9996 2 40030 97.9028 231.4692 0012533 149.2679 210.9274 14.88182717185289 EO-80 1 40032U 14033Y 17322.18164510 .00000495 00000-0 59818-4 0 9994 2 40032 97.9036 231.9250 0012510 148.3360 211.8611 14.88119077185348 ANTELSAT 1 40034U 14033AA 17322.20299836 .00000364 00000-0 61662-4 0 9994 2 40034 97.8368 201.1771 0059353 156.1742 204.2234 14.73806224183617 VELOX-1 1 40057U 14034E 17322.33206906 .00000462 00000-0 72667-4 0 9996 2 40057 98.1939 64.9315 0009677 285.6231 74.3911 14.77271245182513 DAURIA DX 1 1 40071U 14037C 17322.50695535 .00000186 00000-0 31378-4 0 9991 2 40071 98.3510 79.8379 0007189 281.2631 78.7779 14.81088749181815 UKUBE-1 1 40074U 14037F 17322.47424561 .00000446 00000-0 61132-4 0 9999 2 40074 98.3616 84.4814 0003307 278.3043 81.7798 14.83650689182055 HODOYOSHI-1 1 40299U 14070B 17322.31406904 .00001011 00000-0 46492-4 0 9990 2 40299 97.3951 42.6669 0011471 273.5119 130.6498 15.22591378168396 CHUBUSAT-1 1 40300U 14070C 17322.51041667 .00001129 00000-0 53507-4 0 9991 2 40300 97.3861 39.5201 0018576 282.5411 260.7685 15.21225971168243 QSAT-EOS 1 40301U 14070D 17322.42012691 .00002588 00000-0 10898-3 0 9992 2 40301 97.3795 39.9408 0025417 275.9283 215.5904 15.23983081168313 FIREBIRD FU3 1 40377U 15003B 17322.48172876 .00004458 00000-0 18793-3 0 9990 2 40377 99.1102 177.2753 0133111 210.4575 148.8874 15.16306305154382 FIREBIRD FU4 1 40378U 15003C 17322.53813731 .00004161 00000-0 17555-3 0 9995 2 40378 99.1104 177.3902 0133326 210.1645 149.1860 15.16320948154394 GRIFEX 1 40379U 15003D 17322.51660119 .00002906 00000-0 13184-3 0 9993 2 40379 99.1139 174.4834 0139565 219.8831 139.2076 15.13656265154221 NO-84 1 40654U 15025D 17321.28280490 .00011144 00000-0 19879-3 0 01427 2 40654 055.0002 270.9631 0165986 291.8938 066.4227 15.36885882023226 NO-83 1 40655U 15025E 17321.27792856 .00027939 00000-0 36551-3 0 01640 2 40655 054.9812 235.2217 0127293 314.0029 045.0613 15.49340031023358 DEORBITSAIL 1 40719U 15032E 17321.65582534 .00000715 00000-0 11050-3 0 9997 2 40719 97.9633 213.3526 0017044 13.6802 346.4866 14.76238769126962 NUDT-PHONESAT 1 40900U 15049B 17322.50070423 .00004074 00000-0 18989-3 0 9991 2 40900 97.4426 328.3252 0015130 51.2426 309.0159 15.20352284119899 XW-2A 1 40903U 15049E 17322.53068391 .00003352 00000-0 86908-4 0 9993 2 40903 97.4083 350.1060 0016282 72.3505 287.9517 15.39615118121389 XW-2C 1 40906U 15049H 17322.49710125 .00001192 00000-0 67435-4 0 9994 2 40906 97.4572 324.9548 0016337 44.6834 315.5711 15.14867191119590 XW-2D 1 40907U 15049J 17322.53501942 .00001293 00000-0 72617-4 0 9995 2 40907 97.4543 324.7202 0015658 42.9051 317.3399 15.14994272119606 LILACSAT-2 1 40908U 15049K 17322.49535621 .00000719 00000-0 43878-4 0 9991 2 40908 97.4649 324.2988 0017232 42.3161 317.9396 15.13317861119500 XW-2F 1 40910U 15049M 17322.50697096 .00002092 00000-0 11197-3 0 9995 2 40910 97.4554 325.6318 0016390 40.0399 320.2038 15.16030157119527 XW-2B 1 40911U 15049N 17322.54532676 .00001245 00000-0 70115-4 0 9997 2 40911 97.4583 325.1812 0015581 43.3150 316.9304 15.14947288119502 DCBB 1 40912U 15049P 17322.42432385 .00002032 00000-0 10241-3 0 9999 2 40912 97.4517 327.8259 0016654 31.2823 107.0698 15.18187581119689 TW-1C 1 40926U 15051B 17322.45279098 .00011349 00000-0 23691-3 0 9994 2 40926 97.2132 0.9363 0010046 338.8735 133.3986 15.45638373120726 TW-1A 1 40928U 15051D 17322.48494137 .00003938 00000-0 10931-3 0 9990 2 40928 97.2117 355.5089 0012704 11.5318 98.8384 15.37413786120390 IO-86 1 40931U 15052B 17322.18252131 .00000699 00000-0 82714-5 0 9999 2 40931 5.9958 214.6961 0013071 264.4276 95.4527 14.76554413115769 GomX-3 1 40949U 98067HA 16292.18357804 .08527750 12374-4 77882-3 0 9992 2 40949 51.6055 106.7696 0006699 286.1344 73.8944 16.38002265 59645 LQSat 1 40958U 15057A 17322.45015728 .00000052 00000-0 15942-4 0 9993 2 40958 97.9647 34.9626 0016891 294.6606 65.2844 14.73000712113827 AO-85 1 40967U 15058D 17321.41609828 .00000191 00000-0 40387-4 0 01547 2 40967 064.7750 114.0260 0183078 022.6292 338.2753 14.75572000022401 ATHENOXAT-1 1 41168U 15077C 17322.27965438 .00002461 00000-0 10004-3 0 9990 2 41168 14.9808 123.2695 0012332 351.5009 211.2714 15.12190589106392 ChubuSat-2 1 41338U 16012B 17321.09306083 .00000457 00000-0 29113-4 0 9998 2 41338 31.0027 221.0659 0013840 133.8020 226.3761 14.99867846 95960 ChubuSat-3 1 41339U 16012C 17322.26504292 .00000417 00000-0 25823-4 0 9991 2 41339 31.0088 212.5232 0013757 152.2087 207.9289 15.00064349 96124 Horyu-4 1 41340U 16012D 17322.10157689 .00000826 00000-0 56702-4 0 9994 2 41340 31.0044 209.9639 0014152 160.8408 199.2762 15.00802533 96158 OUFTI-1 1 41458U 16025C 17322.38070740 .00002169 00000-0 11703-3 0 9993 2 41458 98.1680 8.7241 0173586 133.6218 227.9571 15.03932299 85742 [email protected] 1 41459U 16025D 17322.42031961 .00003228 00000-0 17299-3 0 9994 2 41459 98.1666 8.6760 0173658 134.2204 227.3443 15.03714360 85743 AAUSAT4 1 41460U 16025E 17322.44791441 .00003096 00000-0 16492-3 0 9991 2 41460 98.1622 8.9294 0166274 131.3138 230.2552 15.04879287 85781 NODES 1 1 41477U 98067HX 17262.38431888 .17021661 12538-4 46079-3 0 9990 2 41477 51.6074 225.8859 0003017 249.6794 110.5489 16.45625800 77086 NODES 2 1 41478U 98067HY 17266.27255257 .13534231 12598-4 22876-3 0 9990 2 41478 51.6086 206.1528 0005980 262.1280 97.9071 16.47641774 77698 LO-87 1 41557U 16033B 17322.30383758 .00002733 00000-0 10348-3 0 9991 2 41557 97.4539 41.7894 0014131 176.7326 183.4008 15.27709392 81958 NuSat2 1 41558U 16033C 17322.28834493 .00002801 00000-0 10655-3 0 9993 2 41558 97.4568 41.8445 0013609 175.3238 184.8130 15.27535848 81943 Lapan A3 1 41603U 16040E 17322.47370668 .00000378 00000-0 21036-4 0 9995 2 41603 97.4430 22.4553 0011845 256.1859 162.3473 15.19464328 78081 Swayam 1 41607U 16040J 17322.39355549 .00002920 00000-0 13261-3 0 9996 2 41607 97.4431 23.0602 0012474 255.2316 104.7537 15.21517494 78048 Pratham 1 41783U 16059A 17322.12964756 .00000139 00000-0 36355-4 0 9998 2 41783 98.1488 21.7581 0034384 39.9558 320.4164 14.62879612 61102 AlSat 1N 1 41789U 16059G 17322.40047223 .00000135 00000-0 34759-4 0 9998 2 41789 98.1490 22.8271 0029271 32.9889 327.3132 14.64100817 61172 ScatSat 1 41790U 16059H 17322.14176209 .00000052 00000-0 24515-4 0 9995 2 41790 98.2914 8.4093 0018818 22.6262 337.5758 14.50848974 60583 TY-1 1 41844U 16066D 17322.49499883 .00001959 00000-0 87016-4 0 9999 2 41844 97.4065 327.3746 0017673 59.3432 62.7194 15.22594241 56810 CAS-2T 1 41845U 16066E 17322.54072187 .00000134 00000-0 30309-4 0 9997 2 41845 98.7698 341.8172 0367238 149.9308 212.3547 14.37827597 53678 Pegasus-1 1 41846U 16066F 17321.90342969 .00000535 00000-0 91239-4 0 9999 2 41846 098.7731 340.8397 0369363 153.6559 208.3943 14.37186253053555 STARS-C 1 41895U 98067KR 17321.52959591 .00085183 00000-0 52972-3 0 9999 2 41895 51.6349 334.3952 0003391 78.5375 281.6005 15.76231714 52036 Tancredo 1 1 41931U 98067KT 17290.98270503 .14164078 12479-4 76733-3 0 9998 2 41931 51.6104 115.9004 0006182 280.1451 79.8879 16.42240901 42996 TO-89 1 41932U 98067KU 17322.48543631 .00028126 00000-0 28057-3 0 9992 2 41932 51.6391 337.1388 0004885 103.2036 256.9505 15.65408904 47655 AOBA-V3LOX3 1 41935U 98067KX 17321.52231079 .00032034 00000-0 30540-3 0 9992 2 41935 051.6387 341.1928 0004262 098.1031 262.0448 15.66474743047619 OSNSAT 1 41939U 98067KZ 17322.26621782 .00167989 00000-0 73642-3 0 9990 2 41939 51.6336 325.7673 0006887 81.1204 279.0579 15.83580827 47131 EO-88 1 42017U 17008BX 17322.14741905 .00002926 00000-0 12477-3 0 9999 2 42017 97.4778 23.2126 0007693 51.5177 308.6749 15.23716954 41921 HAVELSAT 1 42700U 98067LH 17322.32086727 .00026386 00000-0 30517-3 0 9997 2 42700 51.6388 345.0151 0004037 165.2044 194.9069 15.61666447 28971 SOMP2 1 42701U 98067LJ 17322.47721045 .00026713 00000-0 31439-3 0 9991 2 42701 51.6386 344.5614 0004045 165.9214 194.1893 15.61204897 28988 Columbia 1 42702U 98067LK 17322.47542518 .00097501 00000-0 75026-3 0 9991 2 42702 51.6350 340.0188 0003240 99.2723 260.8641 15.71214682 28972 PHOENIX 1 42706U 98067LP 17322.33651085 .00023701 00000-0 27846-3 0 9998 2 42706 51.6386 345.1236 0001596 80.4799 279.6375 15.61328428 28887 X-CubeSat 1 42707U 98067LQ 17322.39426080 .00027035 00000-0 31296-3 0 9998 2 42707 51.6373 344.7471 0001681 77.6020 282.5162 15.61633729 28880 qbee 1 42708U 98067LR 17322.27489243 .00026290 00000-0 30702-3 0 9999 2 42708 51.6379 345.4510 0001682 80.4042 279.7142 15.61422126 28823 ZA-AeroSat 1 42713U 98067LU 17322.46803776 .00024180 00000-0 29539-3 0 9999 2 42713 51.6386 345.2491 0002930 79.6714 280.4609 15.60293128 28550 LINK 1 42714U 98067LV 17322.30404900 .00035056 00000-0 38245-3 0 9997 2 42714 51.6367 344.8888 0003316 69.6309 290.5041 15.63021461 28658 UPSat 1 42716U 98067LX 17322.55235614 .00032441 00000-0 36044-3 0 9990 2 42716 51.6383 343.5610 0002253 155.8301 204.2800 15.62594848 28711 SpaceCube 1 42717U 98067LY 17322.48270587 .00026966 00000-0 31598-3 0 9995 2 42717 51.6383 344.5946 0002499 160.6949 199.4139 15.61318237 27937 Hoopoe 1 42718U 98067LZ 17322.32521643 .00028597 00000-0 32626-3 0 9996 2 42718 51.6383 345.0428 0002432 154.5185 205.5929 15.61978579 27915 Challenger 1 42721U 98067MA 17322.52339511 .00041549 00000-0 43329-3 0 9997 2 42721 51.6370 343.3513 0004826 137.2840 222.8531 15.64085487 27658 NJUST-1 1 42722U 98067MB 17322.50182537 .00019510 00000-0 24269-3 0 9995 2 42722 51.6389 345.4708 0005909 151.4998 208.6320 15.59951595 27624 UNSW-EC0 1 42723U 98067MC 17322.29526373 .00032048 00000-0 36589-3 0 9991 2 42723 51.6392 345.5958 0005242 143.9085 216.2264 15.61887442 27589 DUTHsat 1 42724U 98067MD 17322.48139878 .00040554 00000-0 42976-3 0 9991 2 42724 51.6380 343.8324 0004035 136.9730 223.1580 15.63692045 27553 LO-90 1 42725U 98067ME 17322.48531266 .00025537 00000-0 30790-3 0 9994 2 42725 51.6389 345.3640 0004661 149.1868 210.9400 15.60597313 27536 nSIGHT1 1 42726U 98067MF 17322.40082383 .00011683 00000-0 15927-3 0 9990 2 42726 51.6399 347.0557 0005603 157.8038 202.3198 15.57990101 27500 QBITO 1 42728U 98067MH 17322.51202578 .00026263 00000-0 30934-3 0 9999 2 42728 51.6402 344.8060 0002204 139.0399 221.0760 15.61198551 27346 Aalto-2 1 42729U 98067MJ 17322.51089725 .00026236 00000-0 30846-3 0 9999 2 42729 51.6390 344.7876 0002130 136.6142 223.5020 15.61246824 27358 SUSat 1 42730U 98067MK 17322.39797806 .00025899 00000-0 30855-3 0 9997 2 42730 51.6386 345.5285 0002368 137.3263 222.7915 15.60909449 27322 i-INSPIRE II 1 42731U 98067ML 17322.47310054 .00028963 00000-0 32830-3 0 9993 2 42731 51.6375 344.5149 0006890 95.8880 264.2900 15.62118218 27396 PolyITAN-2-SAU 1 42732U 98067MM 17322.50279133 .00027950 00000-0 32605-3 0 9995 2 42732 51.6381 344.7163 0006907 97.0574 263.1205 15.61392276 27398 SNUSAT-1 1 42733U 98067MN 17322.33427118 .00026011 00000-0 31000-3 0 9990 2 42733 51.6385 345.8442 0006936 100.0273 260.1504 15.60875995 27367 ExAlta-1 1 42734U 98067MP 17322.35038336 .00032738 00000-0 37102-3 0 9995 2 42734 51.6375 345.1968 0007381 121.7939 238.3774 15.62052689 27328 Aoxiang-1 1 42735U 98067MQ 17322.49490102 .00020476 00000-0 25311-3 0 9999 2 42735 51.6382 345.4192 0006514 148.9890 211.1489 15.60078866 28756 BeEagleSat 1 42736U 98067MR 17322.35211363 .00023931 00000-0 29007-3 0 9990 2 42736 51.6381 345.9658 0006323 145.3806 214.7600 15.60489980 27424 Atlantis 1 42737U 98067MS 17322.47992182 .00081665 00000-0 69248-3 0 9998 2 42737 51.6344 341.5395 0004893 110.8097 249.3425 15.68943191 27384 CAS-4B 1 42759U 17034B 17322.40382161 .00000352 00000-0 35393-4 0 9999 2 42759 43.0188 160.2645 0008665 236.2382 189.2612 15.09104263 23609 CAS-4A 1 42761U 17034D 17322.60447943 .00000337 00000-0 34434-4 0 9992 2 42761 43.0173 159.0666 0008981 237.4627 241.3153 15.09179777 23625 UCLSat 1 42765U 17036A 17321.90894677 .00002589 00000-0 11880-3 0 9990 2 42765 097.4320 019.8712 0013710 096.7107 263.5690 15.21242673023178 NIUSat 1 42766U 17036B 17321.90204479 .00001834 00000-0 88296-4 0 9994 2 42766 097.4321 019.5814 0017842 083.8973 276.4295 15.19902278022431 LituanicaSAT 2 1 42768U 17036D 17321.87636471 .00003680 00000-0 17129-3 0 9990 2 42768 097.4327 019.6144 0017745 087.2028 273.1238 15.20418262022446 InflateSail 1 42770U 17036F 17245.93730135 .99999999 00000-0 73960-1 0 9995 2 42770 097.4262 306.2162 0014869 278.7167 080.9844 16.07641391010932 Aalto 1 1 42775U 17036L 17322.11923216 .00001572 00000-0 75237-4 0 9995 2 42775 97.4317 19.8983 0016022 84.0661 276.2400 15.20332378 22427 URSA MAIOR 1 42776U 17036M 17322.11507013 .00001638 00000-0 78132-4 0 9999 2 42776 97.4321 19.9094 0015875 84.3663 275.9382 15.20389858 22427 Max Valier Sat 1 42778U 17036P 17322.14215203 .00001901 00000-0 89094-4 0 9993 2 42778 97.4338 20.0561 0014467 89.6016 270.6877 15.20823896 22421 Pegasus 1 42784U 17036V 17322.11973974 .00002338 00000-0 10802-3 0 9998 2 42784 97.4322 20.0528 0014255 95.8973 264.3888 15.21090821 22427 NUDATSat 1 42787U 17036Y 17321.90388725 .00003393 00000-0 15392-3 0 9992 2 42787 097.4325 019.8829 0013830 096.9439 263.3370 15.21420294022235 SUCHAI 1 1 42788U 17036Z 17321.91055564 .00002802 00000-0 12823-3 0 9996 2 42788 097.4323 019.8719 0013878 096.7192 263.5624 15.21265733022462 SKCUBE 1 42789U 17036AA 17321.90774438 .00002631 00000-0 12057-3 0 9993 2 42789 097.4321 019.8738 0013701 096.6860 263.5935 15.21272036022388 VZLUSAT 1 1 42790U 17036AB 17321.89723530 .00003287 00000-0 14908-3 0 9995 2 42790 097.4322 019.8843 0013359 097.2618 263.0137 15.21458019022381 VENTA 1 1 42791U 17036AC 17321.76676789 .00002379 00000-0 10911-3 0 9996 2 42791 097.4322 019.7554 0013307 097.7237 262.5510 15.21345436022359 Robusta 1B 1 42792U 17036AD 17322.09270160 .00002507 00000-0 11463-3 0 9993 2 42792 97.4319 20.0799 0013229 97.1914 263.0826 15.21406095 22424 D-SAT 1 42794U 17036AF 17322.08545284 .00000489 00000-0 48692-4 0 9998 2 42794 97.6239 19.3576 0125901 264.3070 94.3781 14.90705370 22276 BIRD-J 1 42820U 98067MU 17322.18373417 .00022649 00000-0 28295-3 0 9997 2 42820 51.6382 347.8413 0003799 75.7834 284.3581 15.59743224 20842 BIRD-G 1 42821U 98067MV 17321.48664097 .00020497 00000-0 25872-3 0 9994 2 42821 51.6384 351.4362 0003687 75.2698 284.8703 15.59539834 20715 BIRD-M 1 42822U 98067MW 17321.93495298 .00021127 00000-0 26576-3 0 9993 2 42822 051.6384 349.1806 0003653 079.3000 280.8404 15.59609182020806 BIRD-M 1 42822U 98067MW 17322.19125608 .00021913 00000-0 27526-3 0 9996 2 42822 51.6384 347.8925 0003684 80.2395 279.9014 15.59620080 20823 BIRD-B 1 42823U 98067MX 17321.55242364 .00022173 00000-0 27851-3 0 9995 2 42823 51.6390 351.1309 0006184 103.9614 256.2067 15.59602316 20727 BIRD-N 1 42824U 98067MY 17322.32720615 .00022254 00000-0 28014-3 0 9994 2 42824 51.6393 347.3077 0006089 107.1862 252.9798 15.59542426 20836 TechnoSat 1 42829U 17042E 17322.47051583 .00000338 00000-0 39875-4 0 9997 2 42829 97.6076 227.5715 0014289 174.1377 186.0011 14.90719864 18943 Mayak 1 42830U 17042F 17322.52795625 .00001133 00000-0 12005-3 0 9996 2 42830 97.6082 227.6587 0014315 171.7854 188.3602 14.90953553 18949 OBJECT MZ 1 42910U 98067MZ 17322.47309429 .00017947 00000-0 23854-3 0 9992 2 42910 51.6379 347.5141 0006714 132.8026 227.3532 15.58249323 14465 OBJECT NA 1 42911U 98067NA 17322.53338996 .00019258 00000-0 25343-3 0 9993 2 42911 51.6389 347.1830 0006357 126.5983 233.5595 15.58463778 14452 OBJECT NB 1 42912U 98067NB 17322.54593004 .00018968 00000-0 25230-3 0 9990 2 42912 51.6376 347.2365 0005549 139.4828 220.6578 15.58193794 14474 OBJECT NC 1 42913U 98067NC 17322.30200198 .00031865 00000-0 39084-3 0 9997 2 42913 51.6378 347.8733 0003923 138.1415 221.9879 15.60024983 14401 OBJECT ND 1 42914U 98067ND 17322.55190038 .00017633 00000-0 23670-3 0 9997 2 42914 51.6389 347.3023 0005596 132.8094 227.3370 15.58005139 14464 QIKCOM-1 1 42983U 98067NF 17322.50168196 .00005078 00000-0 82282-4 0 9993 2 42983 51.6439 348.9756 0005379 128.4111 346.2626 15.54677430 3420 AO-91 1 43015U 17073C 17322.72086064 -.00000076 00000-0 00000 0 0 9992 2 43015 97.6866 257.8586 0257216 236.5936 121.0430 14.77555309 57 /EX